H1 CPF 2 NER 2021 9 4 9 247 01 glonass138 H2 1805301 9138 43508 2021 9 4 0 0 0 2021 9 7 23 45 0 900 1 1 0 0 0 1 H9 10 0 59461 0.00000 0 -17937830.619 15696640.786 -9110999.494 10 0 59461 900.00000 0 -18641445.022 16335779.088 -6072096.643 10 0 59461 1800.00000 0 -18990795.758 16797051.114 -2915381.428 10 0 59461 2700.00000 0 -19007444.483 17028368.215 297894.144 10 0 59461 3600.00000 0 -18724362.680 16984700.278 3505394.745 10 0 59461 4500.00000 0 -18184366.357 16630151.311 6644908.362 10 0 59461 5400.00000 0 -17438154.140 15939665.259 9655549.701 10 0 59461 6300.00000 0 -16542031.698 14900289.734 12478937.109 10 0 59461 7200.00000 0 -15555418.604 13511944.070 15060320.305 10 0 59461 8100.00000 0 -14538242.608 11787658.738 17349637.389 10 0 59461 9000.00000 0 -13548330.763 9753275.128 19302481.094 10 0 59461 9900.00000 0 -12638906.825 7446617.228 20880955.984 10 0 59461 10800.00000 0 -11856299.698 4916168.462 22054410.574 10 0 59461 11700.00000 0 -11237958.760 2219307.400 22800030.718 10 0 59461 12600.00000 0 -10810859.085 -579825.660 23103283.104 10 0 59461 13500.00000 0 -10590363.319 -3412744.111 22958200.476 10 0 59461 14400.00000 0 -10579587.968 -6209213.629 22367503.021 10 0 59461 15300.00000 0 -10769300.987 -8899927.306 21342553.183 10 0 59461 16200.00000 0 -11138355.359 -11419147.426 19903144.220 10 0 59461 17100.00000 0 -11654641.118 -13707205.073 18077125.718 10 0 59461 18000.00000 0 -12276516.393 -15712754.194 15899872.414 10 0 59461 18900.00000 0 -12954657.934 -17394686.677 13413605.607 10 0 59461 19800.00000 0 -13634253.588 -18723628.802 10666579.394 10 0 59461 20700.00000 0 -14257444.528 -19682956.495 7712146.886 10 0 59461 21600.00000 0 -14765914.010 -20269286.962 4607724.096 10 0 59461 22500.00000 0 -15103512.837 -20492426.096 1413671.550 10 0 59461 23400.00000 0 -15218809.726 -20374774.031 -1807884.271 10 0 59461 24300.00000 0 -15067457.637 -19950214.259 -4994266.137 10 0 59461 25200.00000 0 -14614274.683 -19262533.683 -8083473.465 10 0 59461 26100.00000 0 -13834950.263 -18363441.021 -11015396.912 10 0 59461 27000.00000 0 -12717302.961 -17310268.130 -13732995.566 10 0 59461 27900.00000 0 -11262035.832 -16163452.249 -16183412.964 10 0 59461 28800.00000 0 -9482956.160 -14983906.362 -18319009.453 10 0 59461 29700.00000 0 -7406649.528 -13830389.412 -20098290.452 10 0 59461 30600.00000 0 -5071621.127 -12756987.783 -21486712.523 10 0 59461 31500.00000 0 -2526939.815 -11810814.403 -22457351.724 10 0 59461 32400.00000 0 169558.849 -11030022.232 -22991421.768 10 0 59461 33300.00000 0 2953435.965 -10442215.264 -23078632.576 10 0 59461 34200.00000 0 5756089.206 -10063323.209 -22717382.928 10 0 59461 35100.00000 0 8507368.206 -9896986.189 -21914784.202 10 0 59461 36000.00000 0 11138257.226 -9934474.343 -20686515.322 10 0 59461 36900.00000 0 13583514.187 -10155144.678 -19056512.199 10 0 59461 37800.00000 0 15784157.224 -10527415.000 -17056498.006 10 0 59461 38700.00000 0 17689696.342 -11010213.109 -14725363.494 10 0 59461 39600.00000 0 19260018.294 -11554839.628 -12108409.443 10 0 59461 40500.00000 0 20466847.361 -12107165.451 -9256465.891 10 0 59461 41400.00000 0 21294722.344 -12610070.892 -6224905.060 10 0 59461 42300.00000 0 21741450.107 -13006023.422 -3072567.159 10 0 59461 43200.00000 0 21818017.992 -13239685.110 139380.219 10 0 59461 44100.00000 0 21547969.849 -13260439.602 3348627.015 10 0 59461 45000.00000 0 20966272.840 -13024731.920 6492926.880 10 0 59461 45900.00000 0 20117723.430 -12498122.126 9511301.275 10 0 59461 46800.00000 0 19054960.074 -11656966.019 12345218.255 10 0 59461 47700.00000 0 17836166.472 -10489651.582 14939723.162 10 0 59461 48600.00000 0 16522561.998 -8997338.556 17244499.645 10 0 59461 49500.00000 0 15175784.546 -7194169.131 19214840.876 10 0 59461 50400.00000 0 13855275.388 -5106939.900 20812512.551 10 0 59461 51300.00000 0 12615775.254 -2774247.420 22006491.548 10 0 59461 52200.00000 0 11505036.107 -245141.530 22773566.444 10 0 59461 53100.00000 0 10561843.966 2422658.965 23098788.602 10 0 59461 54000.00000 0 9814435.150 5164915.727 22975765.332 10 0 59461 54900.00000 0 9279371.942 7913297.673 22406789.404 10 0 59461 55800.00000 0 8960924.661 10597985.729 21402802.049 10 0 59461 56700.00000 0 8850986.039 13150348.653 19983189.607 10 0 59461 57600.00000 0 8929521.723 15505579.770 18175416.928 10 0 59461 58500.00000 0 9165538.259 17605185.587 16014503.669 10 0 59461 59400.00000 0 9518528.196 19399223.134 13542352.670 10 0 59461 60300.00000 0 9940331.717 20848192.840 10806942.482 10 0 59461 61200.00000 0 10377336.410 21924507.792 7861399.072 10 0 59461 62100.00000 0 10772922.163 22613477.700 4762964.279 10 0 59461 63000.00000 0 11070047.437 22913766.141 1571880.957 10 0 59461 63900.00000 0 11213866.748 22837301.747 -1649783.142 10 0 59461 64800.00000 0 11154267.604 22408647.149 -4839349.326 10 0 59461 65700.00000 0 10848218.228 21663852.522 -7934755.319 10 0 59461 66600.00000 0 10261825.366 20648842.549 -10875771.025 10 0 59461 67500.00000 0 9372013.720 19417405.509 -13605178.122 10 0 59461 68400.00000 0 8167754.670 18028870.089 -16069889.609 10 0 59461 69300.00000 0 6650791.216 16545568.713 -18221986.778 10 0 59461 70200.00000 0 4835827.534 15030195.010 -20019653.055 10 0 59461 71100.00000 0 2750174.223 13543167.229 -21427986.469 10 0 59461 72000.00000 0 432863.511 12140108.850 -22419675.104 10 0 59461 72900.00000 0 -2066729.167 10869552.189 -22975522.887 10 0 59461 73800.00000 0 -4690700.079 9770961.041 -23084816.146 10 0 59461 74700.00000 0 -7374793.251 8873154.652 -22745524.485 10 0 59461 75600.00000 0 -10050847.454 8193198.089 -21964332.837 10 0 59461 76500.00000 0 -12649412.803 7735804.346 -20756504.639 10 0 59461 77400.00000 0 -15102428.579 7493271.971 -19145579.291 10 0 59461 78300.00000 0 -17345851.626 7445959.499 -17162910.077 10 0 59461 79200.00000 0 -19322126.710 7563275.495 -14847051.637 10 0 59461 80100.00000 0 -20982396.819 7805141.511 -12243008.925 10 0 59461 81000.00000 0 -22288362.205 8123865.464 -9401362.159 10 0 59461 81900.00000 0 -23213711.657 8466345.757 -6377284.591 10 0 59461 82800.00000 0 -23745067.095 8776512.734 -3229472.130 10 0 59461 83700.00000 0 -23882403.038 8997904.014 -19005.509 10 0 59461 84600.00000 0 -23638924.281 9076264.744 3191833.016 10 0 59461 85500.00000 0 -23040407.728 8962062.746 6340765.363 10 0 59462 0.00000 0 -22124036.733 8612812.233 9366722.366 10 0 59462 900.00000 0 -20936777.256 7995107.318 12211024.616 10 0 59462 1800.00000 0 -19533364.577 7086280.486 14818515.730 10 0 59462 2700.00000 0 -17973984.839 5875613.462 17138627.524 10 0 59462 3600.00000 0 -16321748.702 4365051.039 19126356.075 10 0 59462 4500.00000 0 -14640062.634 2569385.385 20743130.438 10 0 59462 5400.00000 0 -12990007.432 515902.527 21957557.766 10 0 59462 6300.00000 0 -11427833.034 -1756495.927 22746030.902 10 0 59462 7200.00000 0 -10002673.777 -4198660.668 23093187.028 10 0 59462 8100.00000 0 -8754578.939 -6752996.934 22992208.739 10 0 59462 9000.00000 0 -7712940.312 -9355627.858 22444961.666 10 0 59462 9900.00000 0 -6895382.116 -11938830.434 21461965.683 10 0 59462 10800.00000 0 -6307159.388 -14433644.301 20062199.651 10 0 59462 11700.00000 0 -5941089.862 -16772545.987 18272742.699 10 0 59462 12600.00000 0 -5778022.201 -18892078.079 16128258.024 10 0 59462 13500.00000 0 -5787820.921 -20735324.265 13670328.261 10 0 59462 14400.00000 0 -5930826.617 -22254127.171 10946654.335 10 0 59462 15300.00000 0 -6159729.902 -23410956.124 8010132.709 10 0 59462 16200.00000 0 -6421779.786 -24180346.353 4917828.454 10 0 59462 17100.00000 0 -6661232.679 -24549848.903 1729863.992 10 0 59462 18000.00000 0 -6821937.765 -24520450.922 -1491754.567 10 0 59462 18900.00000 0 -6849948.299 -24106448.430 -4684350.092 10 0 59462 19800.00000 0 -6696047.050 -23334776.825 -7785801.711 10 0 59462 20700.00000 0 -6318077.647 -22243827.519 -10735761.732 10 0 59462 21600.00000 0 -5682981.712 -20881800.934 -13476837.560 10 0 59462 22500.00000 0 -4768454.219 -19304665.850 -15955714.716 10 0 59462 23400.00000 0 -3564145.936 -17573811.723 -18124198.321 10 0 59462 24300.00000 0 -2072361.011 -15753493.443 -19940152.413 10 0 59462 25200.00000 0 -308219.387 -13908176.512 -21368318.726 10 0 59462 26100.00000 0 1700723.561 -12099894.513 -22380999.147 10 0 59462 27000.00000 0 3915384.893 -10385729.759 -22958589.092 10 0 59462 27900.00000 0 6286552.039 -8815522.399 -23089952.047 10 0 59462 28800.00000 0 8756712.787 -7429903.290 -22772628.698 10 0 59462 29700.00000 0 11262241.435 -6258731.974 -22012877.315 10 0 59462 30600.00000 0 13735850.468 -5320003.843 -20825545.193 10 0 59462 31500.00000 0 16109206.004 -4619270.821 -19233774.159 10 0 59462 32400.00000 0 18315598.731 -4149598.237 -17268546.150 10 0 59462 33300.00000 0 20292559.629 -3892058.147 -14968077.828 10 0 59462 34200.00000 0 21984312.137 -3816736.940 -12377076.036 10 0 59462 35100.00000 0 23343959.188 -3884213.571 -9545868.471 10 0 59462 36000.00000 0 24335314.614 -4047445.097 -6529426.321 10 0 59462 36900.00000 0 24934303.075 -4253979.222 -3386297.789 10 0 59462 37800.00000 0 25129870.730 -4448399.852 -177473.112 10 0 59462 38700.00000 0 24924369.241 -4574901.939 3034796.976 10 0 59462 39600.00000 0 24333397.609 -4579886.568 6188206.353 10 0 59462 40500.00000 0 23385109.046 -4414466.406 9221598.847 10 0 59462 41400.00000 0 22119012.300 -4036775.443 12076150.565 10 0 59462 42300.00000 0 20584317.950 -3413985.311 14696506.339 10 0 59462 43200.00000 0 18837898.988 -2523942.725 17031848.580 10 0 59462 44100.00000 0 16941950.945 -1356358.482 19036878.232 10 0 59462 45000.00000 0 14961449.127 86502.741 20672689.227 10 0 59462 45900.00000 0 12961508.771 1789661.855 21907520.079 10 0 59462 46800.00000 0 11004757.677 3725802.152 22717368.560 10 0 59462 47700.00000 0 9148830.322 5856169.167 23086457.917 10 0 59462 48600.00000 0 7444087.181 8131957.736 23007545.869 10 0 59462 49500.00000 0 5931653.654 10496130.180 22482070.364 10 0 59462 50400.00000 0 4641859.801 12885591.499 21520128.968 10 0 59462 51300.00000 0 3593145.447 15233632.531 20140291.755 10 0 59462 52200.00000 0 2791475.967 17472540.663 18369250.484 10 0 59462 53100.00000 0 2230292.985 19536270.167 16241309.957 10 0 59462 54000.00000 0 1891001.748 21363061.422 13797730.402 10 0 59462 54900.00000 0 1743974.561 22897899.877 11085932.712 10 0 59462 55800.00000 0 1750027.848 24094711.723 8158581.248 10 0 59462 56700.00000 0 1862310.215 24918203.931 5072561.573 10 0 59462 57600.00000 0 2028521.303 25345270.932 1887872.821 10 0 59462 58500.00000 0 2193366.920 25365908.149 -1333543.446 10 0 59462 59400.00000 0 2301145.589 24983593.445 -4529014.539 10 0 59462 60300.00000 0 2298355.838 24215120.007 -7636363.795 10 0 59462 61200.00000 0 2136212.537 23089887.497 -10595128.557 10 0 59462 62100.00000 0 1772964.332 21648681.396 -13347744.375 10 0 59462 63000.00000 0 1175912.750 19941992.201 -15840671.454 10 0 59462 63900.00000 0 323046.349 18027945.648 -18025440.640 10 0 59462 64800.00000 0 -795780.267 15969931.516 -19859598.210 10 0 59462 65700.00000 0 -2178173.245 13834031.034 -21307530.978 10 0 59462 66600.00000 0 -3809061.227 11686351.191 -22341155.772 10 0 59462 67500.00000 0 -5661098.504 9590377.710 -22940460.378 10 0 59462 68400.00000 0 -7695593.239 7604457.224 -23093886.050 10 0 59462 69300.00000 0 -9863922.307 5779513.418 -22798544.837 10 0 59462 70200.00000 0 -12109373.989 4157091.615 -22060268.262 10 0 59462 71100.00000 0 -14369342.046 2767812.258 -20893486.990 10 0 59462 72000.00000 0 -16577779.900 1630296.441 -19320944.360 10 0 59462 72900.00000 0 -18667813.061 750606.744 -17373249.640 10 0 59462 73800.00000 0 -20574401.302 122224.985 -15088279.818 10 0 59462 74700.00000 0 -22236939.942 -273433.811 -12510441.630 10 0 59462 75600.00000 0 -23601692.194 -465994.465 -9689808.025 10 0 59462 76500.00000 0 -24623951.493 -494626.255 -6681145.724 10 0 59462 77400.00000 0 -25269843.855 -406143.230 -3542852.696 10 0 59462 78300.00000 0 -25517695.392 -252781.212 -335826.056 10 0 59462 79200.00000 0 -25358908.153 -89746.019 2877717.701 10 0 59462 80100.00000 0 -24798307.991 27363.105 6035447.176 10 0 59462 81000.00000 0 -23853950.219 45145.675 9076121.950 10 0 59462 81900.00000 0 -22556391.389 -85102.007 11940776.584 10 0 59462 82800.00000 0 -20947457.818 -405088.626 14573859.834 10 0 59462 83700.00000 0 -19078562.326 -947526.693 16924307.320 10 0 59462 84600.00000 0 -17008639.348 -1734513.188 18946527.265 10 0 59462 85500.00000 0 -14801784.356 -2776360.711 20601280.589 10 0 59463 0.00000 0 -12524695.523 -4070929.042 21856438.895 10 0 59463 900.00000 0 -10244023.593 -5603486.668 22687606.257 10 0 59463 1800.00000 0 -8023739.510 -7347108.158 23078592.901 10 0 59463 2700.00000 0 -5922629.043 -9263594.205 23021732.163 10 0 59463 3600.00000 0 -3992016.984 -11304875.735 22518034.414 10 0 59463 4500.00000 0 -2273815.733 -13414846.238 21577174.661 10 0 59463 5400.00000 0 -798978.437 -15531546.995 20217313.589 10 0 59463 6300.00000 0 413579.314 -17589615.614 18464754.669 10 0 59463 7200.00000 0 1357544.606 -19522896.624 16353443.063 10 0 59463 8100.00000 0 2039235.940 -21267105.880 13924315.054 10 0 59463 9000.00000 0 2477094.708 -22762437.685 11224509.654 10 0 59463 9900.00000 0 2700661.092 -23956005.349 8306457.013 10 0 59463 10800.00000 0 2749077.933 -24804012.507 5226860.840 10 0 59463 11700.00000 0 2669186.219 -25273563.361 2045594.438 10 0 59463 12600.00000 0 2513293.325 -25344034.926 -1175467.869 10 0 59463 13500.00000 0 2336709.339 -25007952.756 -4373660.669 10 0 59463 14400.00000 0 2195156.842 -24271332.510 -7486754.413 10 0 59463 15300.00000 0 2142165.071 -23153472.424 -10454174.461 10 0 59463 16200.00000 0 2226560.128 -21686205.149 -13218187.501 10 0 59463 17100.00000 0 2490158.824 -19912640.316 -15725031.366 10 0 59463 18000.00000 0 2965764.905 -17885450.926 -17925965.452 10 0 59463 18900.00000 0 3675553.471 -15664775.848 -19778220.884 10 0 59463 19800.00000 0 4629912.687 -13315826.730 -21245831.859 10 0 59463 20700.00000 0 5826792.317 -10906299.972 -22300332.051 10 0 59463 21600.00000 0 7251587.086 -8503702.119 -22921303.086 10 0 59463 22500.00000 0 8877560.236 -6172700.312 -23096764.984 10 0 59463 23400.00000 0 10666789.787 -3972608.019 -22823401.690 10 0 59463 24300.00000 0 12571598.230 -1955110.126 -22106618.065 10 0 59463 25200.00000 0 14536406.091 -162321.123 -20960427.809 10 0 59463 26100.00000 0 16499932.132 1374743.981 -19407175.037 10 0 59463 27000.00000 0 18397648.555 2637223.855 -17477095.209 10 0 59463 27900.00000 0 20164388.983 3618947.936 -15207724.108 10 0 59463 28800.00000 0 21737000.509 4326435.701 -12643166.404 10 0 59463 29700.00000 0 23056929.323 4778359.976 -9833237.928 10 0 59463 30600.00000 0 24072632.120 5004498.462 -6832498.171 10 0 59463 31500.00000 0 24741712.656 5044218.930 -3699191.760 10 0 59463 32400.00000 0 25032694.263 4944563.116 -494119.336 10 0 59463 33300.00000 0 24926354.350 4758011.009 2720540.335 10 0 59463 34200.00000 0 24416565.082 4540020.522 5882434.086 10 0 59463 35100.00000 0 23510605.153 4346446.921 8930240.655 10 0 59463 36000.00000 0 22228929.565 4230951.279 11804856.244 10 0 59463 36900.00000 0 20604406.973 4242507.550 14450536.439 10 0 59463 37800.00000 0 18681056.257 4423113.630 16815972.644 10 0 59463 38700.00000 0 16512334.749 4805803.136 18855282.569 10 0 59463 39600.00000 0 14159049.070 5413041.945 20528895.970 10 0 59463 40500.00000 0 11686975.042 6255577.468 21804319.053 10 0 59463 41400.00000 0 9164284.961 7331789.745 22656763.239 10 0 59463 42300.00000 0 6658888.499 8627572.577 23069626.485 10 0 59463 43200.00000 0 4235796.806 10116750.899 23034818.111 10 0 59463 44100.00000 0 1954618.444 11762018.387 22552920.843 10 0 59463 45000.00000 0 -132709.587 13516357.570 21633186.643 10 0 59463 45900.00000 0 -1983862.213 15324884.621 20293365.907 10 0 59463 46800.00000 0 -3567657.944 17127043.147 18559372.513 10 0 59463 47700.00000 0 -4865118.522 18859056.363 16464790.322 10 0 59463 48600.00000 0 -5870012.788 20456535.918 14050229.696 10 0 59463 49500.00000 0 -6588862.446 21857138.579 11362545.538 10 0 59463 50400.00000 0 -7040409.828 23003159.373 8453931.349 10 0 59463 51300.00000 0 -7254570.492 23843951.998 5380906.379 10 0 59463 52200.00000 0 -7270915.331 24338074.125 2203215.363 10 0 59463 53100.00000 0 -7136746.877 24455066.375 -1017337.441 10 0 59463 54000.00000 0 -6904851.989 24176789.097 -4218096.758 10 0 59463 54900.00000 0 -6631027.021 23498259.614 -7336783.022 10 0 59463 55800.00000 0 -6371481.384 22427953.806 -10312712.390 10 0 59463 56700.00000 0 -6180230.685 20987558.656 -13087985.339 10 0 59463 57600.00000 0 -6106591.080 19211185.728 -15608619.794 10 0 59463 58500.00000 0 -6192881.982 17144078.510 -17825605.933 10 0 59463 59400.00000 0 -6472435.299 14840867.906 -19695861.733 10 0 59463 60300.00000 0 -6967996.130 12363449.143 -21183070.514 10 0 59463 61200.00000 0 -7690582.953 9778569.218 -22258384.294 10 0 59463 62100.00000 0 -8638855.808 7155225.815 -22900979.759 10 0 59463 63000.00000 0 -9799019.292 4561986.152 -23098456.608 10 0 59463 63900.00000 0 -11145264.615 2064337.333 -22847071.262 10 0 59463 64800.00000 0 -12640732.264 -277822.115 -22151802.103 10 0 59463 65700.00000 0 -14238955.026 -2412445.974 -21026245.629 10 0 59463 66600.00000 0 -15885720.974 -4297266.296 -19492346.036 10 0 59463 67500.00000 0 -17521278.585 -5901302.858 -17579963.851 10 0 59463 68400.00000 0 -19082791.826 -7205894.897 -15326292.111 10 0 59463 69300.00000 0 -20506942.622 -8205213.802 -12775131.531 10 0 59463 70200.00000 0 -21732571.907 -8906237.173 -9976038.639 10 0 59463 71100.00000 0 -22703248.867 -9328187.099 -6983363.293 10 0 59463 72000.00000 0 -23369660.796 -9501457.795 -3855194.191 10 0 59463 72900.00000 0 -23691723.548 -9466079.095 -652232.773 10 0 59463 73800.00000 0 -23640324.105 -9269781.629 2563382.766 10 0 59463 74700.00000 0 -23198622.189 -8965746.077 5729280.428 10 0 59463 75600.00000 0 -22362856.244 -8610132.091 8784061.089 10 0 59463 76500.00000 0 -21142619.801 -8259491.548 11668485.588 10 0 59463 77400.00000 0 -19560596.384 -7968175.487 14326619.263 10 0 59463 78300.00000 0 -17651763.618 -7785844.267 16706912.085 10 0 59463 79200.00000 0 -15462099.234 -7755185.931 18763193.794 10 0 59463 80100.00000 0 -13046842.315 -7909939.023 20455565.213 10 0 59463 81000.00000 0 -10468381.462 -8273303.228 21751168.979 10 0 59463 81900.00000 0 -7793856.762 -8856805.071 22624825.326 10 0 59463 82800.00000 0 -5092574.384 -9659666.878 23059520.937 10 0 59463 83700.00000 0 -2433340.093 -10668706.334 23046741.698 10 0 59463 84600.00000 0 118178.676 -11858771.970 22586642.902 10 0 59463 85500.00000 0 2501953.533 -13193697.508 21688053.334 10 0 59464 0.00000 0 4665855.733 -14627736.479 20368312.688 10 0 59464 900.00000 0 6567583.318 -16107418.475 18652944.430 10 0 59464 1800.00000 0 8176175.648 -17573750.074 16575170.123 10 0 59464 2700.00000 0 9473051.554 -18964669.478 14175272.842 10 0 59464 3600.00000 0 10452529.658 -20217652.286 11499821.713 10 0 59464 4500.00000 0 11121808.195 -21272359.045 8600771.587 10 0 59464 5400.00000 0 11500406.189 -22073213.150 5534454.944 10 0 59464 6300.00000 0 11619089.812 -22571799.940 2360485.376 10 0 59464 7200.00000 0 11518329.773 -22728985.007 -859405.729 10 0 59464 8100.00000 0 11246355.654 -22516661.361 -4062576.194 10 0 59464 9000.00000 0 10856890.350 -21919050.582 -7186699.484 10 0 59464 9900.00000 0 10406661.527 -20933501.983 -10170985.644 10 0 59464 10800.00000 0 9952796.583 -19570755.130 -12957372.004 10 0 59464 11700.00000 0 9550212.530 -17854653.851 -15491659.571 10 0 59464 12600.00000 0 9249112.328 -15821323.296 -17724572.160 10 0 59464 13500.00000 0 9092694.477 -13517844.281 -19612717.226 10 0 59464 14400.00000 0 9115173.359 -11000480.382 -21119429.543 10 0 59464 15300.00000 0 9340194.379 -8332531.994 -22215481.436 10 0 59464 16200.00000 0 9779710.983 -5581907.056 -22879646.179 10 0 59464 17100.00000 0 10433370.902 -2818509.611 -23099104.232 10 0 59464 18000.00000 0 11288437.358 -111554.862 -22869685.095 10 0 59464 18900.00000 0 12320248.384 2473078.057 -22195940.833 10 0 59464 19800.00000 0 13493194.779 4875346.286 -21091050.465 10 0 59464 20700.00000 0 14762175.500 7043293.358 -19576557.594 10 0 59464 21600.00000 0 16074469.314 8934956.977 -17681946.739 10 0 59464 22500.00000 0 17371944.191 10519856.540 -15444066.733 10 0 59464 23400.00000 0 18593511.730 11779999.992 -12906412.491 10 0 59464 24300.00000 0 19677723.720 12710369.748 -10118279.016 10 0 59464 25200.00000 0 20565401.943 13318869.118 -7133803.940 10 0 59464 26100.00000 0 21202190.849 13625733.077 -4010917.139 10 0 59464 27000.00000 0 21540925.951 13662429.640 -810217.714 10 0 59464 27900.00000 0 21543718.428 13470099.300 2406199.985 10 0 59464 28800.00000 0 21183668.285 13097599.204 5575948.432 10 0 59464 29700.00000 0 20446133.930 12599235.269 8637553.881 10 0 59464 30600.00000 0 19329504.554 12032278.300 11531644.876 10 0 59464 31500.00000 0 17845442.524 11454369.135 14202099.356 10 0 59464 32400.00000 0 16018585.010 10920922.272 16597128.416 10 0 59464 33300.00000 0 13885716.600 10482637.361 18670276.106 10 0 59464 34200.00000 0 11494446.607 10183223.266 20381316.269 10 0 59464 35100.00000 0 8901445.191 10057430.390 21697029.628 10 0 59464 36000.00000 0 6170310.611 10129474.039 22591846.551 10 0 59464 36900.00000 0 3369155.145 10411915.256 23048343.423 10 0 59464 37800.00000 0 568008.722 10905046.513 23057583.299 10 0 59464 38700.00000 0 -2163853.197 11596808.711 22619294.242 10 0 59464 39600.00000 0 -4760547.611 12463243.803 21741881.638 10 0 59464 40500.00000 0 -7162079.390 13469465.090 20442273.742 10 0 59464 41400.00000 0 -9316591.289 14571105.584 18745602.673 10 0 59464 42300.00000 0 -11182275.574 15716184.706 16684726.121 10 0 59464 43200.00000 0 -12728868.169 16847315.804 14299598.079 10 0 59464 44100.00000 0 -13938663.345 17904162.380 11636499.790 10 0 59464 45000.00000 0 -14807006.756 18826039.930 8747145.161 10 0 59464 45900.00000 0 -15342246.458 19554553.737 5687677.455 10 0 59464 46800.00000 0 -15565144.346 20036160.940 2517576.569 10 0 59464 47700.00000 0 -15507773.169 20224547.932 -701501.611 10 0 59464 48600.00000 0 -15211946.325 20082721.674 -3906930.686 10 0 59464 49500.00000 0 -14727247.500 19584725.344 -7036339.871 10 0 59464 50400.00000 0 -14108744.385 18716904.656 -10028835.812 10 0 59464 51300.00000 0 -13414484.235 17478670.202 -12826195.356 10 0 59464 52200.00000 0 -12702878.267 15882722.618 -15374005.149 10 0 59464 53100.00000 0 -12030086.565 13954730.291 -17622725.030 10 0 59464 54000.00000 0 -11447514.885 11732472.540 -19528654.109 10 0 59464 54900.00000 0 -10999529.756 9264483.768 -21054780.565 10 0 59464 55800.00000 0 -10721488.709 6608255.169 -22171498.705 10 0 59464 56700.00000 0 -10638168.770 3828068.959 -22857179.791 10 0 59464 57600.00000 0 -10762659.309 992555.287 -23098586.121 10 0 59464 58500.00000 0 -11095765.490 -1827926.592 -22891121.019 10 0 59464 59400.00000 0 -11625946.941 -4563974.341 -22238910.592 10 0 59464 60300.00000 0 -12329793.721 -7149784.732 -21154716.335 10 0 59464 61200.00000 0 -13173019.072 -9525642.948 -19659680.789 10 0 59464 62100.00000 0 -14111926.821 -11640156.606 -17782911.578 10 0 59464 63000.00000 0 -15095291.445 -13452142.910 -15560912.047 10 0 59464 63900.00000 0 -16066571.587 -14932091.681 -13036869.685 10 0 59464 64800.00000 0 -16966363.819 -16063144.906 -10259816.046 10 0 59464 65700.00000 0 -17734993.457 -16841553.470 -7283674.385 10 0 59464 66600.00000 0 -18315133.374 -17276593.519 -4166213.413 10 0 59464 67500.00000 0 -18654340.634 -17389947.433 -967927.387 10 0 59464 68400.00000 0 -18707404.125 -17214576.730 2249135.828 10 0 59464 69300.00000 0 -18438404.266 -16793135.329 5422575.950 10 0 59464 70200.00000 0 -17822397.946 -16175990.811 8490847.469 10 0 59464 71100.00000 0 -16846657.476 -15418937.573 11394449.558 10 0 59464 72000.00000 0 -15511411.047 -14580698.501 14077075.677 10 0 59464 72900.00000 0 -13830052.949 -13720320.520 16486700.895 10 0 59464 73800.00000 0 -11828813.900 -12894573.536 18576586.246 10 0 59464 74700.00000 0 -9545904.252 -12155462.047 20306181.037 10 0 59464 75600.00000 0 -7030164.690 -11547953.780 21641906.195 10 0 59464 76500.00000 0 -4339279.291 -11108020.530 22557803.985 10 0 59464 77400.00000 0 -1537623.993 -10861073.344 23036041.874 10 0 59464 78300.00000 0 1306161.557 -10820857.705 23067261.086 10 0 59464 79200.00000 0 4121779.356 -10988855.303 22650763.090 10 0 59464 80100.00000 0 6839948.655 -11354217.868 21794530.162 10 0 59464 81000.00000 0 9395041.950 -11894236.494 20515079.130 10 0 59464 81900.00000 0 11727572.807 -12575327.477 18837150.344 10 0 59464 82800.00000 0 13786432.735 -13354494.061 16793237.001 10 0 59464 83700.00000 0 15530784.516 -14181203.390 14422962.977 10 0 59464 84600.00000 0 16931533.342 -14999600.241 11772320.238 10 0 59464 85500.00000 0 17972314.413 -15750964.614 8892779.938 99